SCP
-0 -0 -1 -0 -0 -0 -1 -1 -1 -1 -0 -0 -0 -0 -0 -0 -0 0 -0 -0 -0 -0 -0 -0 -0 -0 -0 -0 -0 0 0 0 0 0 0 0 0 0 0 0 0 0 0
-0 -0 -1 -0 -0 -0 -1 -1 -0 -0 -0 -0 -0 -0 -0 -0 -0 -0 -0 -0 -0 -0 -0 -0 -0 -0 -0 0 0 0 0 0 0 0 0 0 0 0 0 0 0 0 0
-0 -1 -1 -0 0 -0 -0 -0 -0 -0 -0 -0 -0 -0 -0 -0 -0 0 -0 -0 -0 -0 -0 -0 0 0 0 0 0 0 0 0 0 0 0 0 0 0 0 0 0 0 0
-0 -1 -0 -0 0 0 0 -0 -0 -0 -0 -0 -0 -0 -0 -0 -0 -0 0 0 0 0 0 0 0 0 0 0 0 0 0 0 0 0 0 0 0 0 0 0 0 0 0
-0 -1 -0 0 0 0 0 0 0 -0 -0 -0 -0 -0 -0 -0 -0 0 0 0 0 0 0 0 0 0 0 0 0 0 0 0 0 0 0 -0 -0 0 0 0 0 0 0
-0 -0 -0 0 0 0 1 0 0 -0 -0 -0 -0 -0 -0 -0 0 0 0 0 0 0 0 0 0 0 0 0 0 0 0 0 0 0 0 0 -0 0 0 0 0 0 0
-0 -0 -0 -0 0 0 0 0 0 0 -0 -0 -0 -0 -0 -0 -0 0 0 0 0 0 0 0 0 0 0 0 0 0 0 0 0 0 0 0 0 0 0 0 0 0 0
-0 -0 -0 -0 0 0 0 0 0 0 -0 -0 -0 -0 -0 -0 -0 -0 -0 0 0 0 0 0 0 0 0 0 0 0 0 0 0 0 0 0 0 0 0 0 0 0 0
-0 0 -0 -0 -0 -0 0 0 0 0 -0 -0 -0 -0 -0 -0 -0 -0 -0 0 0 0 0 0 0 0 0 0 0 0 0 0 0 0 0 0 0 0 0 0 0 0 0
0 0 0 0 -0 -0 -0 -0 -0 0 -0 -0 -0 -0 -0 -0 -0 -0 0 0 0 0 0 0 0 0 0 0 0 0 0 0 0 0 0 0 0 0 0 0 0 0 0
0 0 0 0 0 -0 -0 -0 -0 -0 -0 0 0 0 0 0 0 0 0 0 0 0 0 0 0 0 0 0 0 0 0 0 0 0 0 0 0 0 0 0 0 0 0
0 0 0 0 0 0 -0 -0 -0 -0 -0 -0 0 0 0 0 0 0 0 0 0 0 0 0 0 0 0 0 0 0 0 0 0 0 0 0 0 0 0 0 0 0 0
0 0 0 0 0 0 0 0 0 0 0 0 0 0 0 0 0 0 0 0 0 0 0 0 0 0 0 0 0 0 0 0 0 0 0 0 0 0 0 0 0 0 0
0 0 0 0 0 0 0 0 0 0 0 0 0 0 0 0 0 0 0 0 0 0 0 0 0 0 0 0 0 0 0 0 0 0 0 0 0 0 0 0 0 0 0
0 0 0 0 0 0 0 0 0 0 0 0 1 0 1 0 0 0 0 0 0 0 0 0 0 0 0 0 0 0 0 0 0 0 0 0 0 0 0 0 1 0 0
0 0 0 0 0 1 0 0 0 1 0 0 0 0 0 0 1 0 0 0 0 0 0 0 0 0 0 0 0 0 0 0 0 0 0 0 0 0 0 0 1 1 1
0 1 0 -0 1 1 0 0 0 0 0 0 0 0 0 0 1 0 0 0 0 0 0 0 0 0 0 0 0 0 0 0 0 0 0 0 0 0 0 0 0 1 1
0 1 1 0 0 0 0 1 0 0 0 0 0 0 0 0 0 0 0 0 0 0 0 0 0 0 0 0 0 0 0 0 0 0 0 0 0 0 1 0 1 1 1
0 1 2 1 0 0 0 0 0 0 0 0 0 0 0 0 0 0 0 0 0 0 0 0 0 0 0 0 0 0 0 0 0 0 0 0 0 0 1 1 1 1 0
0 0 1 2 2 1 0 0 0 0 0 0 0 0 0 0 0 0 0 0 0 0 0 0 0 0 0 0 0 0 0 0 0 0 0 0 1 1 1 1 1 0 0
0 0 0 0 3 3 2 1 1 0 1 0 0 0 0 0 0 0 0 0 0 0 0 0 0 1 1 0 0 0 0 0 0 0 1 1 1 1 1 1 1 0 0
0 0 0 0 0 2 2 3 2 1 1 1 1 1 1 0 0 1 1 1 1 0 0 1 1 1 1 1 1 1 1 1 1 1 1 1 1 1 1 1 0 0 0
0 0 0 0 0 0 1 1 2 2 2 2 1 1 1 1 1 1 1 2 1 1 1 1 1 2 3 1 0 1 1 1 1 0 1 1 0 1 0 1 0 0 1
0 0 0 0 0 0 0 0 2 2 2 2 2 2 2 2 1 2 2 2 1 2 1 1 1 2 2 1 0 0 1 1 1 1 1 1 0 1 1 1 1 1 1
0 0 0 0 0 0 0 0 0 2 1 2 2 3 2 2 2 1 2 2 2 2 1 2 1 2 1 1 1 1 0 1 1 1 1 1 0 1 0 1 0 1 1
0 0 0 0 0 0 0 0 0 1 2 2 2 2 2 2 2 2 2 2 2 2 2 2 2 2 1 1 1 1 1 1 1 1 1 1 1 1 1 0 0 0 0
Wind_Speed_500mb
60 51 47 49 49 45 42 41 41 44 41 36 32 30 28 32 34 35 35 34 32 29 27 25 22 19 17 14 11 9 7 7 8 8 7 8 8 8 9 9 10 8 9
60 58 51 52 52 48 44 42 42 43 41 39 38 36 37 40 41 40 37 36 35 34 30 28 26 23 19 17 15 13 12 12 12 11 12 14 13 10 9 9 9 8 8
63 61 57 56 55 52 49 46 46 46 47 47 45 44 43 43 42 41 38 36 34 31 28 26 24 21 20 18 18 17 14 13 15 15 16 16 14 15 13 9 9 7 6
67 65 62 60 61 58 56 55 54 53 53 51 49 48 46 42 40 38 36 34 32 30 28 24 22 20 19 18 17 16 16 17 17 18 17 15 11 10 13 11 8 8 6
75 69 64 64 66 64 62 61 59 58 55 52 50 47 44 41 36 35 32 30 28 25 24 22 20 18 17 15 15 15 15 16 15 15 16 16 15 12 12 14 10 6 4
81 74 68 67 68 68 66 64 62 59 55 52 50 46 41 37 34 30 28 25 23 20 18 16 15 13 12 11 11 12 12 10 11 12 12 10 12 10 11 12 11 8 3
87 80 74 69 70 70 68 64 61 58 54 51 47 44 39 35 31 28 25 22 19 17 15 13 12 10 9 8 7 6 7 6 6 6 7 7 5 4 4 6 9 9 5
92 85 79 74 73 73 72 67 62 58 54 50 47 42 37 32 29 27 23 21 19 17 16 15 13 11 9 7 5 4 1 4 6 4 4 5 4 8 7 2 2 6 7
92 86 85 78 73 73 71 70 63 58 54 50 46 41 36 32 28 26 24 22 20 19 18 16 14 12 11 9 8 7 6 9 9 9 9 9 13 9 9 10 5 5 7
94 90 87 84 80 77 74 69 65 61 56 51 46 41 36 33 30 29 28 26 23 22 21 19 18 16 16 15 14 13 13 13 14 11 11 14 14 16 13 12 9 9 9
84 88 90 86 84 81 79 73 67 62 59 54 49 45 41 40 37 35 34 29 28 26 26 24 24 23 22 22 21 20 21 20 20 17 14 17 12 12 18 16 13 13 11
83 93 89 87 85 81 78 76 71 67 63 60 57 52 51 48 43 38 36 34 33 31 32 32 30 30 30 31 28 28 27 26 26 23 18 19 17 9 15 17 15 17 16
78 85 90 91 87 85 82 79 75 73 71 65 61 57 54 51 46 44 42 41 39 39 39 39 37 38 37 35 35 34 32 31 32 28 24 21 21 16 15 16 20 22 21
73 87 90 88 89 89 86 84 79 75 72 65 61 57 56 55 51 49 46 44 43 44 43 43 41 43 42 40 40 40 39 37 38 33 30 28 28 23 19 19 22 24 22
47 88 90 95 95 92 91 84 78 77 74 68 61 61 56 56 54 52 47 46 47 47 46 45 43 44 46 43 44 42 43 42 42 39 36 34 34 32 28 24 23 21 21
30 54 80 95 96 93 93 86 82 78 76 75 65 61 57 56 52 53 49 51 51 49 47 46 45 43 46 44 46 46 43 44 45 44 42 38 37 39 36 31 29 26 23
27 33 50 78 88 90 88 87 82 84 79 74 64 61 58 52 55 51 54 54 55 49 46 45 46 42 44 43 42 46 41 41 42 41 41 41 41 41 39 33 32 31 28
22 25 36 46 69 81 85 89 87 80 81 75 68 66 63 52 49 50 52 57 55 50 46 45 45 43 45 40 40 44 40 39 37 34 37 38 42 45 42 38 35 36 33
23 17 21 39 51 73 74 93 87 91 80 74 78 62 58 54 50 68 58 53 62 44 48 46 46 42 45 39 41 43 40 39 34 32 31 36 41 46 45 40 37 34 35
26 27 22 28 42 62 83 82 86 93 90 82 62 73 86 66 55 58 63 55 66 52 49 46 44 42 44 40 41 46 43 41 37 32 29 31 35 42 39 35 35 37 34
19 23 31 28 35 51 52 63 78 88 87 95 81 89 89 68 69 63 80 52 65 58 49 44 42 40 44 43 43 45 47 44 40 33 29 30 36 41 38 37 35 34 33
30 22 27 35 39 50 58 60 67 73 79 86 79 77 78 76 76 69 69 64 62 54 47 50 43 42 42 42 41 27 21 24 36 37 35 34 39 38 36 36 38 36 38
43 37 30 27 39 56 61 63 70 76 74 76 83 79 83 87 88 75 67 63 61 47 51 52 47 46 43 43 42 28 13 16 10 23 32 36 40 39 38 35 40 42 43
38 43 41 35 31 39 50 55 61 73 75 79 76 74 73 74 72 76 82 55 58 49 55 54 54 48 44 48 44 46 51 19 11 7 17 17 26 29 23 24 29 31 35
34 37 41 45 42 34 41 54 63 68 67 69 76 73 71 69 74 78 67 56 57 53 59 58 56 50 46 49 45 42 46 40 40 26 21 24 22 25 20 22 24 25 28
33 39 41 42 48 43 41 47 64 77 81 80 77 75 74 76 82 85 68 59 54 57 59 57 56 54 51 46 38 36 35 35 36 42 37 30 26 24 26 23 21 24 28
Wind_Direction_500mb
192 195 180 170 172 171 168 165 165 164 162 159 156 154 151 145 137 134 133 132 130 128 128 128 126 122 123 122 115 106 103 86 73 72 72 70 79 81 78 67 60 71 90
185 190 179 171 169 168 167 163 159 156 156 152 151 149 146 142 137 134 132 128 126 124 124 120 118 118 115 110 108 103 94 88 84 78 79 79 73 71 68 52 39 46 69
185 184 178 171 168 165 164 158 155 152 151 149 149 146 146 142 137 133 133 129 126 123 120 120 118 116 112 107 99 94 94 95 93 86 84 84 80 70 63 64 60 52 63
187 182 178 171 167 165 161 155 152 150 149 151 151 150 148 146 143 140 137 135 131 131 128 125 120 116 109 104 100 103 104 93 89 88 96 92 87 76 69 68 82 68 70
187 182 177 172 168 167 163 156 154 152 151 154 155 155 154 150 149 145 144 140 138 136 134 132 126 121 116 112 107 106 104 97 92 90 105 105 102 94 81 65 69 93 82
186 180 178 174 171 171 167 162 159 158 157 160 160 159 158 158 156 156 153 149 146 146 146 141 135 133 130 122 116 115 117 109 106 114 106 114 110 110 94 79 73 75 159
185 180 179 178 174 174 173 170 166 164 164 167 167 167 166 168 168 170 168 163 164 165 167 165 167 164 158 147 135 121 127 142 144 143 142 139 175 174 125 102 70 65 55
186 180 181 181 178 177 177 176 175 173 173 174 176 176 176 178 181 183 184 186 186 190 192 195 197 199 192 177 184 180 198 229 228 221 247 248 259 243 225 238 27 30 13
185 183 183 184 183 182 184 181 182 182 182 183 184 186 187 191 196 201 203 208 212 213 218 223 220 222 228 220 225 239 238 257 270 289 288 264 250 261 237 227 258 311 338
185 186 186 187 186 189 190 188 189 189 191 193 194 197 200 204 209 215 222 223 229 235 237 243 244 245 245 246 245 246 251 258 268 274 273 271 253 253 246 222 224 267 304
187 191 189 192 192 193 193 194 195 198 199 200 203 206 211 215 218 224 231 236 241 246 254 257 256 259 257 255 252 250 250 253 263 263 264 279 263 240 246 239 225 246 279
194 193 196 196 199 198 199 199 200 203 207 207 209 211 217 222 227 232 238 243 247 251 255 259 259 262 262 264 260 259 256 256 257 259 256 262 240 235 249 250 248 249 265
203 200 201 200 203 204 203 205 205 208 211 213 215 219 225 230 232 237 242 246 252 255 258 261 264 267 271 272 270 268 265 263 262 258 254 252 242 246 253 262 262 259 258
218 207 208 209 208 209 209 210 211 215 218 220 224 228 232 237 238 242 249 254 259 261 265 265 268 273 274 275 273 271 270 267 266 264 256 247 244 245 254 258 266 261 256
248 225 215 212 213 214 215 216 217 220 223 226 229 233 240 245 246 249 254 260 264 265 267 270 272 275 275 276 276 274 273 271 268 265 259 249 244 243 253 258 260 251 254
264 239 231 221 218 218 220 220 220 226 229 230 230 236 244 252 256 261 261 266 266 270 270 274 274 275 274 275 276 274 274 271 268 264 259 251 244 241 247 252 253 247 251
287 257 245 234 233 226 226 227 226 229 232 235 236 242 244 256 261 268 270 272 272 272 272 271 272 272 272 274 276 277 278 274 267 263 258 252 243 237 239 248 252 253 253
299 280 256 238 228 229 233 236 234 236 236 241 241 243 253 252 266 281 279 284 281 276 272 269 269 271 270 274 275 275 277 274 267 260 255 252 242 232 235 245 246 248 257
273 284 277 250 235 217 231 244 237 240 240 241 250 249 248 249 245 260 291 297 290 278 272 269 267 268 272 275 273 275 274 271 265 257 257 251 236 231 232 241 247 258 271
266 257 261 260 249 227 236 239 245 241 238 237 244 231 243 238 251 254 277 288 283 276 272 270 269 271 276 274 271 272 270 266 261 255 256 246 230 225 232 246 250 259 268
260 255 247 242 243 243 244 241 241 241 240 238 229 239 240 239 243 234 243 247 269 271 273 275 275 272 276 275 271 272 269 264 258 250 242 234 234 229 241 249 250 251 259
280 266 248 239 237 240 247 251 249 251 246 242 240 235 242 250 254 240 249 260 263 264 274 278 279 279 274 275 263 257 270 265 252 242 238 238 236 244 245 251 252 255 259
273 273 265 253 240 230 242 253 248 250 245 240 239 245 258 264 263 258 261 266 255 263 274 278 284 281 273 270 261 240 231 236 198 234 236 237 240 249 257 258 258 258 256
274 273 269 268 256 252 238 244 246 244 243 246 249 256 260 263 264 265 266 264 257 259 271 279 282 277 267 262 258 248 231 217 211 210 220 219 264 246 244 250 262 257 250
292 286 278 265 261 254 260 246 245 248 250 248 251 255 256 259 263 270 268 258 254 256 266 270 275 267 266 256 256 252 231 232 234 235 246 251 248 238 259 254 258 255 249
297 289 284 279 263 262 259 255 250 247 246 250 253 255 257 258 260 265 269 254 244 255 264 268 272 260 261 251 248 232 219 226 237 237 243 247 248 251 262 250 253 260 260
Wind_Speed_850mb
60 51 47 49 49 45 42 41 41 44 41 36 32 30 28 32 34 35 35 34 32 29 27 25 22 19 17 14 11 9 7 7 8 8 7 8 8 8 9 9 10 8 9
60 58 51 52 52 48 44 42 42 43 41 39 38 36 37 40 41 40 37 36 35 34 30 28 26 23 19 17 15 13 12 12 12 11 12 14 13 10 9 9 9 8 8
63 61 57 56 55 52 49 46 46 46 47 47 45 44 43 43 42 41 38 36 34 31 28 26 24 21 20 18 18 17 14 13 15 15 16 16 14 15 13 9 9 7 6
67 65 62 60 61 58 56 55 54 53 53 51 49 48 46 42 40 38 36 34 32 30 28 24 22 20 19 18 17 16 16 17 17 18 17 15 11 10 13 11 8 8 6
75 69 64 64 66 64 62 61 59 58 55 52 50 47 44 41 36 35 32 30 28 25 24 22 20 18 17 15 15 15 15 16 15 15 16 16 15 12 12 14 10 6 4
81 74 68 67 68 68 66 64 62 59 55 52 50 46 41 37 34 30 28 25 23 20 18 16 15 13 12 11 11 12 12 10 11 12 12 10 12 10 11 12 11 8 3
87 80 74 69 70 70 68 64 61 58 54 51 47 44 39 35 31 28 25 22 19 17 15 13 12 10 9 8 7 6 7 6 6 6 7 7 5 4 4 6 9 9 5
92 85 79 74 73 73 72 67 62 58 54 50 47 42 37 32 29 27 23 21 19 17 16 15 13 11 9 7 5 4 1 4 6 4 4 5 4 8 7 2 2 6 7
92 86 85 78 73 73 71 70 63 58 54 50 46 41 36 32 28 26 24 22 20 19 18 16 14 12 11 9 8 7 6 9 9 9 9 9 13 9 9 10 5 5 7
94 90 87 84 80 77 74 69 65 61 56 51 46 41 36 33 30 29 28 26 23 22 21 19 18 16 16 15 14 13 13 13 14 11 11 14 14 16 13 12 9 9 9
84 88 90 86 84 81 79 73 67 62 59 54 49 45 41 40 37 35 34 29 28 26 26 24 24 23 22 22 21 20 21 20 20 17 14 17 12 12 18 16 13 13 11
83 93 89 87 85 81 78 76 71 67 63 60 57 52 51 48 43 38 36 34 33 31 32 32 30 30 30 31 28 28 27 26 26 23 18 19 17 9 15 17 15 17 16
78 85 90 91 87 85 82 79 75 73 71 65 61 57 54 51 46 44 42 41 39 39 39 39 37 38 37 35 35 34 32 31 32 28 24 21 21 16 15 16 20 22 21
73 87 90 88 89 89 86 84 79 75 72 65 61 57 56 55 51 49 46 44 43 44 43 43 41 43 42 40 40 40 39 37 38 33 30 28 28 23 19 19 22 24 22
47 88 90 95 95 92 91 84 78 77 74 68 61 61 56 56 54 52 47 46 47 47 46 45 43 44 46 43 44 42 43 42 42 39 36 34 34 32 28 24 23 21 21
30 54 80 95 96 93 93 86 82 78 76 75 65 61 57 56 52 53 49 51 51 49 47 46 45 43 46 44 46 46 43 44 45 44 42 38 37 39 36 31 29 26 23
27 33 50 78 88 90 88 87 82 84 79 74 64 61 58 52 55 51 54 54 55 49 46 45 46 42 44 43 42 46 41 41 42 41 41 41 41 41 39 33 32 31 28
22 25 36 46 69 81 85 89 87 80 81 75 68 66 63 52 49 50 52 57 55 50 46 45 45 43 45 40 40 44 40 39 37 34 37 38 42 45 42 38 35 36 33
23 17 21 39 51 73 74 93 87 91 80 74 78 62 58 54 50 68 58 53 62 44 48 46 46 42 45 39 41 43 40 39 34 32 31 36 41 46 45 40 37 34 35
26 27 22 28 42 62 83 82 86 93 90 82 62 73 86 66 55 58 63 55 66 52 49 46 44 42 44 40 41 46 43 41 37 32 29 31 35 42 39 35 35 37 34
19 23 31 28 35 51 52 63 78 88 87 95 81 89 89 68 69 63 80 52 65 58 49 44 42 40 44 43 43 45 47 44 40 33 29 30 36 41 38 37 35 34 33
30 22 27 35 39 50 58 60 67 73 79 86 79 77 78 76 76 69 69 64 62 54 47 50 43 42 42 42 41 27 21 24 36 37 35 34 39 38 36 36 38 36 38
43 37 30 27 39 56 61 63 70 76 74 76 83 79 83 87 88 75 67 63 61 47 51 52 47 46 43 43 42 28 13 16 10 23 32 36 40 39 38 35 40 42 43
38 43 41 35 31 39 50 55 61 73 75 79 76 74 73 74 72 76 82 55 58 49 55 54 54 48 44 48 44 46 51 19 11 7 17 17 26 29 23 24 29 31 35
34 37 41 45 42 34 41 54 63 68 67 69 76 73 71 69 74 78 67 56 57 53 59 58 56 50 46 49 45 42 46 40 40 26 21 24 22 25 20 22 24 25 28
33 39 41 42 48 43 41 47 64 77 81 80 77 75 74 76 82 85 68 59 54 57 59 57 56 54 51 46 38 36 35 35 36 42 37 30 26 24 26 23 21 24 28
Wind_Direction_850mb
192 195 180 170 172 171 168 165 165 164 162 159 156 154 151 145 137 134 133 132 130 128 128 128 126 122 123 122 115 106 103 86 73 72 72 70 79 81 78 67 60 71 90
185 190 179 171 169 168 167 163 159 156 156 152 151 149 146 142 137 134 132 128 126 124 124 120 118 118 115 110 108 103 94 88 84 78 79 79 73 71 68 52 39 46 69
185 184 178 171 168 165 164 158 155 152 151 149 149 146 146 142 137 133 133 129 126 123 120 120 118 116 112 107 99 94 94 95 93 86 84 84 80 70 63 64 60 52 63
187 182 178 171 167 165 161 155 152 150 149 151 151 150 148 146 143 140 137 135 131 131 128 125 120 116 109 104 100 103 104 93 89 88 96 92 87 76 69 68 82 68 70
187 182 177 172 168 167 163 156 154 152 151 154 155 155 154 150 149 145 144 140 138 136 134 132 126 121 116 112 107 106 104 97 92 90 105 105 102 94 81 65 69 93 82
186 180 178 174 171 171 167 162 159 158 157 160 160 159 158 158 156 156 153 149 146 146 146 141 135 133 130 122 116 115 117 109 106 114 106 114 110 110 94 79 73 75 159
185 180 179 178 174 174 173 170 166 164 164 167 167 167 166 168 168 170 168 163 164 165 167 165 167 164 158 147 135 121 127 142 144 143 142 139 175 174 125 102 70 65 55
186 180 181 181 178 177 177 176 175 173 173 174 176 176 176 178 181 183 184 186 186 190 192 195 197 199 192 177 184 180 198 229 228 221 247 248 259 243 225 238 27 30 13
185 183 183 184 183 182 184 181 182 182 182 183 184 186 187 191 196 201 203 208 212 213 218 223 220 222 228 220 225 239 238 257 270 289 288 264 250 261 237 227 258 311 338
185 186 186 187 186 189 190 188 189 189 191 193 194 197 200 204 209 215 222 223 229 235 237 243 244 245 245 246 245 246 251 258 268 274 273 271 253 253 246 222 224 267 304
187 191 189 192 192 193 193 194 195 198 199 200 203 206 211 215 218 224 231 236 241 246 254 257 256 259 257 255 252 250 250 253 263 263 264 279 263 240 246 239 225 246 279
194 193 196 196 199 198 199 199 200 203 207 207 209 211 217 222 227 232 238 243 247 251 255 259 259 262 262 264 260 259 256 256 257 259 256 262 240 235 249 250 248 249 265
203 200 201 200 203 204 203 205 205 208 211 213 215 219 225 230 232 237 242 246 252 255 258 261 264 267 271 272 270 268 265 263 262 258 254 252 242 246 253 262 262 259 258
218 207 208 209 208 209 209 210 211 215 218 220 224 228 232 237 238 242 249 254 259 261 265 265 268 273 274 275 273 271 270 267 266 264 256 247 244 245 254 258 266 261 256
248 225 215 212 213 214 215 216 217 220 223 226 229 233 240 245 246 249 254 260 264 265 267 270 272 275 275 276 276 274 273 271 268 265 259 249 244 243 253 258 260 251 254
264 239 231 221 218 218 220 220 220 226 229 230 230 236 244 252 256 261 261 266 266 270 270 274 274 275 274 275 276 274 274 271 268 264 259 251 244 241 247 252 253 247 251
287 257 245 234 233 226 226 227 226 229 232 235 236 242 244 256 261 268 270 272 272 272 272 271 272 272 272 274 276 277 278 274 267 263 258 252 243 237 239 248 252 253 253
299 280 256 238 228 229 233 236 234 236 236 241 241 243 253 252 266 281 279 284 281 276 272 269 269 271 270 274 275 275 277 274 267 260 255 252 242 232 235 245 246 248 257
273 284 277 250 235 217 231 244 237 240 240 241 250 249 248 249 245 260 291 297 290 278 272 269 267 268 272 275 273 275 274 271 265 257 257 251 236 231 232 241 247 258 271
266 257 261 260 249 227 236 239 245 241 238 237 244 231 243 238 251 254 277 288 283 276 272 270 269 271 276 274 271 272 270 266 261 255 256 246 230 225 232 246 250 259 268
260 255 247 242 243 243 244 241 241 241 240 238 229 239 240 239 243 234 243 247 269 271 273 275 275 272 276 275 271 272 269 264 258 250 242 234 234 229 241 249 250 251 259
280 266 248 239 237 240 247 251 249 251 246 242 240 235 242 250 254 240 249 260 263 264 274 278 279 279 274 275 263 257 270 265 252 242 238 238 236 244 245 251 252 255 259
273 273 265 253 240 230 242 253 248 250 245 240 239 245 258 264 263 258 261 266 255 263 274 278 284 281 273 270 261 240 231 236 198 234 236 237 240 249 257 258 258 258 256
274 273 269 268 256 252 238 244 246 244 243 246 249 256 260 263 264 265 266 264 257 259 271 279 282 277 267 262 258 248 231 217 211 210 220 219 264 246 244 250 262 257 250
292 286 278 265 261 254 260 246 245 248 250 248 251 255 256 259 263 270 268 258 254 256 266 270 275 267 266 256 256 252 231 232 234 235 246 251 248 238 259 254 258 255 249
297 289 284 279 263 262 259 255 250 247 246 250 253 255 257 258 260 265 269 254 244 255 264 268 272 260 261 251 248 232 219 226 237 237 243 247 248 251 262 250 253 260 260